Stündliche Wetter Cegielnia

Heute, 19 Januar, Dienstag

Zeit Temperatur Niederschläge Wind Luftdruck Luftfeuchtigkeit
00:00 -17°C° 0 mm 3 m/S 754 mmHg 90%
01:00 -17°C° 0 mm 3 m/S 754 mmHg 89%
02:00 -17°C° 0 mm 3 m/S 754 mmHg 89%
03:00 -18°C° 0 mm 4 m/S 753 mmHg 89%
04:00 -18°C° 0 mm 4 m/S 753 mmHg 89%
05:00 -18°C° 0 mm 4 m/S 753 mmHg 89%
06:00 -18°C° 0 mm 4 m/S 753 mmHg 88%
07:00 -18°C° 0 mm 4 m/S 753 mmHg 88%
08:00 -17°C° 0 mm 4 m/S 752 mmHg 87%
09:00 -18°C° 0 mm 5 m/S 752 mmHg 86%
10:00 -17°C° 0 mm 5 m/S 752 mmHg 84%
11:00 -15°C° 0 mm 5 m/S 751 mmHg 84%
12:00 -14°C° 0 mm 5 m/S 751 mmHg 84%
13:00 -13°C° 0 mm 5 m/S 751 mmHg 84%
14:00 -14°C° 0 mm 5 m/S 750 mmHg 86%
15:00 -14°C° 0 mm 5 m/S 750 mmHg 87%
16:00 -14°C° 0 mm 5 m/S 750 mmHg 89%
17:00 -14°C° 0 mm 5 m/S 749 mmHg 90%
18:00 -14°C° 0 mm 5 m/S 749 mmHg 91%
19:00 -13°C° 0 mm 5 m/S 749 mmHg 92%
20:00 -14°C° 0 mm 6 m/S 748 mmHg 92%
21:00 -14°C° 0 mm 6 m/S 748 mmHg 92%
22:00 -12°C° 0 mm 6 m/S 748 mmHg 92%
23:00 -12°C° 0 mm 6 m/S 747 mmHg 93%

Morgen, 20 Januar, Mittwoch

Zeit Temperatur Niederschläge Wind Luftdruck Luftfeuchtigkeit
00:00 -11°C° 0 mm 6 m/S 747 mmHg 93%
01:00 -10°C° 0 mm 5 m/S 747 mmHg 93%
02:00 -9°C° 0.1 mm 6 m/S 746 mmHg 93%
03:00 -8°C° 0.1 mm 6 m/S 746 mmHg 94%
04:00 -6°C° 0.1 mm 6 m/S 745 mmHg 94%
05:00 -6°C° 0 mm 6 m/S 745 mmHg 93%
06:00 -6°C° 0 mm 6 m/S 745 mmHg 93%
07:00 -5°C° 0 mm 6 m/S 745 mmHg 93%
08:00 -5°C° 0.2 mm 6 m/S 744 mmHg 93%
09:00 -4°C° 0.2 mm 6 m/S 744 mmHg 93%
10:00 -4°C° 0.2 mm 6 m/S 744 mmHg 94%
11:00 -3°C° 0.1 mm 6 m/S 744 mmHg 95%
12:00 -3°C° 0.1 mm 6 m/S 744 mmHg 97%
13:00 -1°C° 0.1 mm 5 m/S 744 mmHg 98%
14:00 -2°C° 0 mm 6 m/S 744 mmHg 98%
15:00 -2°C° 0 mm 6 m/S 743 mmHg 97%
16:00 -1°C° 0 mm 6 m/S 743 mmHg 97%
17:00 -1°C° 0.4 mm 6 m/S 743 mmHg 97%
18:00 -1°C° 0.4 mm 6 m/S 743 mmHg 97%
19:00 -1°C° 0.4 mm 6 m/S 743 mmHg 97%
20:00 -1°C° 0.4 mm 6 m/S 743 mmHg 96%
21:00 0°C° 0.4 mm 5 m/S 743 mmHg 95%
22:00 0°C° 0.4 mm 5 m/S 743 mmHg 95%
23:00 0°C° 0.1 mm 5 m/S 743 mmHg 94%

übermorgen, 21 Januar, Donnerstag

Zeit Temperatur Niederschläge Wind Luftdruck Luftfeuchtigkeit
00:00 0°C° 0.1 mm 5 m/S 743 mmHg 94%
01:00 -1°C° 0.1 mm 4 m/S 743 mmHg 94%
02:00 -1°C° 0 mm 5 m/S 743 mmHg 93%
03:00 -1°C° 0 mm 5 m/S 743 mmHg 91%
04:00 -1°C° 0 mm 5 m/S 743 mmHg 90%
05:00 -1°C° 0 mm 5 m/S 743 mmHg 89%
06:00 -1°C° 0 mm 5 m/S 743 mmHg 89%
07:00 -1°C° 0 mm 5 m/S 743 mmHg 88%
08:00 -1°C° 0 mm 5 m/S 743 mmHg 87%
09:00 -1°C° 0 mm 5 m/S 743 mmHg 86%
10:00 0°C° 0 mm 5 m/S 743 mmHg 86%
11:00 0°C° 0 mm 5 m/S 743 mmHg 88%
12:00 0°C° 0 mm 5 m/S 743 mmHg 91%
13:00 0°C° 0 mm 5 m/S 743 mmHg 93%
14:00 0°C° 0 mm 5 m/S 743 mmHg 92%
15:00 0°C° 0 mm 5 m/S 743 mmHg 92%
16:00 0°C° 0 mm 5 m/S 742 mmHg 91%
17:00 0°C° 0 mm 5 m/S 742 mmHg 91%
18:00 -2°C° 0 mm 6 m/S 742 mmHg 91%
19:00 -2°C° 0 mm 6 m/S 742 mmHg 91%
20:00 -2°C° 0 mm 6 m/S 742 mmHg 90%
21:00 -1°C° 0 mm 5 m/S 741 mmHg 89%
22:00 -1°C° 0 mm 5 m/S 741 mmHg 88%
23:00 -1°C° 0 mm 5 m/S 741 mmHg 89%

22 Januar, Freitag

Zeit Temperatur Niederschläge Wind Luftdruck Luftfeuchtigkeit
00:00 -1°C° 0 mm 5 m/S 741 mmHg 89%
01:00 -2°C° 0 mm 5 m/S 741 mmHg 90%
02:00 -2°C° 0 mm 5 m/S 740 mmHg 90%
03:00 -2°C° 0 mm 5 m/S 740 mmHg 90%
04:00 -2°C° 0 mm 5 m/S 740 mmHg 90%
05:00 -2°C° 0 mm 5 m/S 739 mmHg 89%
06:00 -2°C° 0 mm 5 m/S 739 mmHg 88%
07:00 -2°C° 0 mm 5 m/S 739 mmHg 87%
08:00 -1°C° 0 mm 5 m/S 739 mmHg 89%
09:00 -1°C° 0 mm 5 m/S 738 mmHg 91%
10:00 -1°C° 0 mm 6 m/S 738 mmHg 93%
11:00 -1°C° 0 mm 6 m/S 738 mmHg 95%
12:00 0°C° 0 mm 5 m/S 737 mmHg 96%
13:00 0°C° 0 mm 5 m/S 737 mmHg 98%
14:00 0°C° 0 mm 5 m/S 736 mmHg 98%
15:00 0°C° 0 mm 5 m/S 736 mmHg 97%
16:00 0°C° 0 mm 4 m/S 736 mmHg 97%
17:00 0°C° 0 mm 4 m/S 736 mmHg 97%
18:00 0°C° 0 mm 4 m/S 737 mmHg 97%
19:00 0°C° 0 mm 4 m/S 737 mmHg 97%
20:00 0°C° 0 mm 4 m/S 738 mmHg 97%
21:00 0°C° 0 mm 4 m/S 738 mmHg 96%
22:00 0°C° 0 mm 4 m/S 739 mmHg 96%
23:00 0°C° 0 mm 3 m/S 739 mmHg 95%

23 Januar, Samstag

Zeit Temperatur Niederschläge Wind Luftdruck Luftfeuchtigkeit
00:00 0°C° 0 mm 3 m/S 740 mmHg 93%
01:00 -1°C° 0 mm 3 m/S 741 mmHg 92%
02:00 -1°C° 0 mm 3 m/S 741 mmHg 91%
03:00 -1°C° 0 mm 3 m/S 741 mmHg 90%
04:00 -1°C° 0 mm 3 m/S 741 mmHg 89%
05:00 -1°C° 0 mm 3 m/S 741 mmHg 90%
06:00 -1°C° 0 mm 3 m/S 741 mmHg 90%
07:00 -2°C° 0 mm 3 m/S 742 mmHg 91%
08:00 -1°C° 0 mm 3 m/S 742 mmHg 91%
09:00 -1°C° 0 mm 3 m/S 742 mmHg 91%
10:00 0°C° 0 mm 3 m/S 742 mmHg 90%
11:00 +1°C° 0 mm 2 m/S 742 mmHg 92%
12:00 +1°C° 0 mm 2 m/S 742 mmHg 93%
13:00 +1°C° 0 mm 2 m/S 742 mmHg 95%
14:00 +1°C° 0 mm 2 m/S 742 mmHg 94%
15:00 -1°C° 0 mm 2 m/S 742 mmHg 92%
16:00 -1°C° 0 mm 2 m/S 742 mmHg 91%
17:00 -1°C° 0 mm 2 m/S 742 mmHg 91%
18:00 -1°C° 0 mm 2 m/S 742 mmHg 92%
19:00 -2°C° 0 mm 2 m/S 742 mmHg 92%
20:00 -2°C° 0 mm 2 m/S 741 mmHg 92%
21:00 -2°C° 0 mm 2 m/S 741 mmHg 93%
22:00 -1°C° 0 mm 3 m/S 741 mmHg 93%
23:00 -2°C° 0 mm 3 m/S 741 mmHg 93%

24 Januar, Sonntag

Zeit Temperatur Niederschläge Wind Luftdruck Luftfeuchtigkeit
00:00 -2°C° 0 mm 3 m/S 741 mmHg 93%
01:00 -2°C° 0 mm 3 m/S 740 mmHg 93%
02:00 -2°C° 0 mm 3 m/S 740 mmHg 93%
03:00 -2°C° 0 mm 3 m/S 739 mmHg 93%
04:00 -2°C° 0 mm 3 m/S 739 mmHg 94%
05:00 -3°C° 0 mm 4 m/S 739 mmHg 94%
06:00 -3°C° 0 mm 4 m/S 739 mmHg 94%
07:00 -3°C° 0 mm 4 m/S 739 mmHg 94%
08:00 -3°C° 0 mm 4 m/S 739 mmHg 94%
09:00 -4°C° 0 mm 5 m/S 739 mmHg 94%
10:00 -4°C° 0 mm 5 m/S 739 mmHg 94%
11:00 -2°C° 0 mm 5 m/S 739 mmHg 94%
12:00 -2°C° 0 mm 4 m/S 739 mmHg 93%
13:00 -2°C° 0 mm 4 m/S 739 mmHg 93%
14:00 -2°C° 0 mm 4 m/S 739 mmHg 93%
15:00 -2°C° 0 mm 4 m/S 739 mmHg 92%
16:00 -1°C° 0 mm 3 m/S 739 mmHg 92%
17:00 -1°C° 0 mm 3 m/S 738 mmHg 93%
18:00 -1°C° 0 mm 3 m/S 738 mmHg 93%
19:00 -1°C° 0 mm 3 m/S 738 mmHg 94%
20:00 -2°C° 0 mm 2 m/S 738 mmHg 95%
21:00 -2°C° 0 mm 2 m/S 738 mmHg 95%
22:00 0°C° 0 mm 1 m/S 737 mmHg 96%
23:00 0°C° 0.3 mm 1 m/S 737 mmHg 97%
Mehr zeigen

Wir brauchen deine Erlaubnis

Meteoprog und unser Service Anbieter werden persönliche Daten aufbewahren, so wie Cookies, Geräte Bezeichnung oder ähnliche Technologien von deinem Gerät und Prozess, so wie Persönliche Daten Inhalte und Werbungen, genauso wie social Media und den Verkehr zu analysieren.

  • Aufbewahrung und/oder Zugang zu deiner Geräte Informationen.

    Cookies, Geräte Bezeichnung oder andere Informationen, können aufbewahrt oder Zugang zu deinem Gerät erhalten, für den Grund, der oben angegeben wird.

  • Personalisierte Werbung und Inhalte, Messungen, Einblick in das Publikum und Produkt Entwicklung.

    Werbungen und Inhalte können personalisiert werden, basierend auf ein Profil. Mehr Daten können besser personalisierte Werbungen und Inhalte hinzufügen. Werbung und Inhalte können gezeigt und gemessen werden. Einblicke über das Publikum, welche die Werbung gesehen haben und den Inhalt, können abgeleitet werden. So wie Daten können genutzt werden, um es zu verbessern oder die Benutzer Erfahrung zu verbessern das System und die Software.

Wenn du “Ich stimme zu” klickst, erlaubst du uns, die Cookies zu benutzen die Geräte Bezeichnung, den Web oder ähnliche Technologien zu benutzen. Deine Settings, können in deinem Gerät bei deinem Browser geändert werden.

Für den bestimmten Zweck, berechtigten Interessen beruhen darauf, mehr als auf den Inhalt. Du kannst mehr darüber in unseren Privaten und Cookie Politik lesen.